Location: McFarlands Corners
(41.4117°N, 81.3382°W)
Time: 13:14:36
(UTC+00:00)

A-11 Canister half - Pass Details

Date: 18 February 2026
Orbit: 1525 x 1683 km, 47.3° (Epoch: 11 March)

Event Time Altitude Azimuth Distance (km) Brightness Sun altitude
Rises 20:52:21 0° 220° (SW) 4,748 13.0 21.0°
Reaches altitude 10° 20:55:30 10° 217° (SW) 3,746 12.8 20.5°
Maximum altitude 21:04:39 57° 141° (SE) 1,761 9.6 19.2°
Drops below altitude 10° 21:13:39 10° 66° (ENE) 3,693 10.5 17.8°
Sets 21:16:44 0° 63° (ENE) 4,677 10.9 17.3°
